1485799200.26,47885,12.13,73312.5,-7.17,-38.05,-38.43,0,*55
1485799201.52,47886,12.13,73316.0,-7.17,-38.29,-38.61,0,*58
1485799202.81,47887,12.13,73314.0,-7.17,-38.23,-38.29,0,*5F
1485799204.08,47888,12.13,73316.3,-7.17,-38.05,-38.29,0,*54
1485799205.34,47889,12.13,73314.8,-7.15,-38.29,-38.49,0,*5F
1485799206.6,47890,12.13,73312.0,-7.17,-38.05,-38.23,0,*57
1485799207.86,47891,12.13,73312.3,-7.17,-38.23,-38.43,0,*54
1485799209.09,47892,12.13,73312.5,-7.17,-38.43,-38.73,0,*52
1485799210.35,47893,12.13,73314.8,-7.17,-38.43,-38.67,0,*56
1485799211.61,47894,12.13,73312.3,-7.17,-38.49,-38.73,0,*5E
1485799212.84,47895,12.13,73320.3,-7.17,-38.61,-38.85,0,*5C
1485799214.13,47896,12.13,73318.5,-7.17,-38.49,-38.67,0,*59
1485799215.42,47897,12.13,73318.8,-7.17,-38.49,-38.67,0,*58
1485799216.71,47898,12.13,73316.3,-7.17,-38.49,-38.67,0,*57
1485799217.97,47899,12.13,73314.3,-7.17,-38.61,-38.91,0,*55
1485799219.2,47900,12.13,73316.5,-7.17,-38.61,-38.73,0,*58
1485799220.44,47901,12.13,73318.3,-7.17,-38.43,-38.61,0,*5A
1485799221.69,47902,12.13,73314.8,-7.21,-38.55,-38.67,0,*5D
1485799222.92,47903,12.13,73316.3,-7.21,-38.55,-38.73,0,*59
1485799224.15,47904,12.13,73316.3,-7.21,-38.35,-38.55,0,*5C
1485799225.38,47905,12.13,73318.3,-7.23,-38.35,-38.49,0,*52
1485799226.61,47906,12.13,73312.5,-7.21,-38.55,-38.73,0,*5C
1485799227.9,47907,12.13,73318.5,-7.21,-38.29,-38.49,0,*5F
1485799229.1,47908,12.13,73312.8,-7.23,-38.35,-38.55,0,*52
1485799230.37,47909,12.13,73318.5,-7.21,-38.49,-38.55,0,*5A
1485799231.63,47910,12.13,73316.5,-7.21,-38.29,-38.35,0,*52
1485799232.86,47911,12.06,73314.5,-7.21,-38.35,-38.35,0,*5E
1485799234.1,47912,12.13,73318.8,-7.21,-38.35,-38.55,0,*5B
1485799235.33,47913,12.13,73314.5,-7.21,-38.35,-38.55,0,*5A
1485799236.61,47914,12.13,73314.3,-7.21,-38.49,-38.67,0,*57
1485799237.87,47915,12.13,73316.3,-7.17,-38.49,-38.73,0,*56
1485799239.13,47916,12.13,73316.8,-7.21,-38.79,-39.09,0,*5F
1485799240.35,47917,12.13,73316.5,-7.23,-38.55,-38.55,0,*5A
1485799241.61,47918,12.13,73316.3,-7.23,-38.49,-38.67,0,*59
1485799242.85,47919,12.13,73318.0,-7.23,-38.49,-38.55,0,*59
1485799244.14,47920,12.13,73312.3,-7.21,-38.49,-38.67,0,*50
1485799245.37,47921,12.13,73318.8,-7.21,-38.35,-38.55,0,*5B
1485799246.63,47922,12.13,73316.3,-7.21,-38.17,-38.29,0,*53
1485799247.89,47923,12.13,73318.3,-7.23,-38.11,-38.29,0,*56
1485799249.15,47924,12.13,73316.8,-7.23,-38.29,-38.49,0,*5C
1485799250.41,47925,12.13,73314.5,-7.21,-38.49,-38.73,0,*50
1485799251.69,47926,12.13,73314.5,-7.21,-38.67,-38.91,0,*53
1485799252.95,47927,12.13,73316.8,-7.21,-38.49,-38.55,0,*56
1485799254.22,47928,12.13,73314.5,-7.23,-38.29,-38.29,0,*56
1485799255.47,47929,12.13,73312.5,-7.21,-38.11,-38.17,0,*53
1485799256.73,47930,12.13,73314.0,-7.21,-38.17,-38.29,0,*50
1485799258.01,47931,12.13,73312.3,-7.21,-38.11,-38.29,0,*57
1485799259.25,47932,12.13,73318.5,-7.23,-38.17,-38.29,0,*50
1485799260.51,47933,12.13,73316.3,-7.21,-38.17,-38.29,0,*53
1485799261.79,47934,12.13,73318.5,-7.21,-38.11,-38.29,0,*52
1485799263.06,47935,12.13,73314.8,-7.21,-38.17,-38.29,0,*55
1485799264.31,47936,12.06,73314.5,-7.21,-37.99,-38.17,0,*52
1485799265.57,47937,12.13,73316.3,-7.21,-38.17,-38.29,0,*57
1485799266.81,47938,12.13,73318.5,-7.21,-38.17,-38.35,0,*55
1485799268.04,47939,12.13,73316.8,-7.23,-38.11,-38.17,0,*50
1485799269.27,47940,12.06,73314.0,-7.23,-38.11,-38.17,0,*5E
1485799270.55,47941,12.13,73318.5,-7.21,-37.99,-38.11,0,*54
1485799271.83,47942,12.13,73316.5,-7.21,-37.99,-38.11,0,*57
1485799273.05,47943,12.13,73316.0,-7.15,-37.93,-38.05,0,*5E
1485799274.29,47944,12.13,73314.5,-7.17,-37.87,-38.05,0,*5E
1485799275.58,47945,12.13,73318.3,-7.17,-37.93,-38.23,0,*5E
1485799276.87,47946,12.13,73318.3,-7.17,-38.23,-38.29,0,*53
1485799278.13,47947,12.13,73312.5,-7.17,-38.23,-38.43,0,*5E
1485799279.41,47948,12.13,73318.3,-7.17,-38.23,-38.29,0,*5D
1485799280.7,47949,12.13,73316.3,-7.17,-38.23,-38.29,0,*5C
1485799281.98,47950,12.13,73318.8,-7.17,-38.11,-38.11,0,*5E
1485799283.27,47951,12.13,73318.5,-7.17,-37.93,-38.23,0,*5B
1485799284.53,47952,12.13,73314.3,-7.17,-38.05,-38.23,0,*58
1485799285.81,47953,12.06,73312.0,-7.17,-38.11,-38.11,0,*5D
1485799287.1,47954,12.13,73316.5,-7.17,-38.11,-38.29,0,*51
1485799288.34,47955,12.13,73316.3,-7.15,-38.29,-38.43,0,*55
1485799289.62,47956,12.13,73318.3,-7.17,-38.29,-38.49,0,*5E
1485799290.91,47957,12.13,73316.0,-7.17,-38.29,-38.49,0,*5F
1485799292.2,47958,12.13,73316.8,-7.17,-38.23,-38.49,0,*5A
1485799293.49,47959,12.13,73318.8,-7.17,-38.23,-38.29,0,*5D
1485799294.77,47960,12.06,73316.8,-7.17,-38.11,-38.23,0,*5C
1485799296.04,47961,12.13,73318.8,-7.15,-38.29,-38.29,0,*5E
1485799297.33,47962,12.13,73314.5,-7.17,-37.93,-38.23,0,*5B
1485799298.61,47963,12.13,73318.0,-7.17,-37.93,-38.23,0,*5A
1485799299.88,47964,12.06,73316.3,-7.15,-37.93,-38.23,0,*5F
1485799301.14,47965,12.13,73316.5,-7.17,-38.29,-38.43,0,*54
1485799302.43,47966,12.13,73316.5,-7.17,-38.29,-38.49,0,*5D
1485799303.67,47967,12.13,73318.8,-7.17,-38.43,-38.61,0,*5A
1485799304.9,47968,12.13,73316.8,-7.17,-38.43,-38.61,0,*55
1485799306.13,47969,12.06,73312.8,-7.15,-38.43,-38.49,0,*5C
1485799307.4,47970,12.06,73316.0,-7.17,-38.43,-38.49,0,*56
1485799308.65,47971,12.13,73316.5,-7.17,-38.23,-38.61,0,*5B
1485799309.92,47972,12.13,73318.3,-7.17,-38.29,-38.61,0,*52
1485799311.18,47973,12.06,73312.5,-7.17,-38.23,-38.43,0,*59
1485799312.44,47974,12.06,73316.5,-7.17,-38.29,-38.43,0,*54
1485799313.71,47975,12.06,73316.0,-7.17,-38.29,-38.43,0,*55
1485799314.99,47976,12.13,73318.3,-7.17,-38.29,-38.67,0,*50
1485799316.28,47977,12.13,73318.0,-7.17,-38.49,-38.67,0,*57
1485799317.54,47978,12.13,73318.3,-7.17,-38.49,-38.73,0,*5D
1485799318.83,47979,12.13,73316.5,-7.17,-38.49,-38.67,0,*59
1485799320.07,47980,12.13,73318.3,-7.17,-38.43,-38.61,0,*53
1485799321.33,47981,12.13,73318.3,-7.21,-38.49,-38.55,0,*5A
1485799322.62,47982,12.13,73318.3,-7.21,-38.49,-38.67,0,*58
1485799323.9,47983,12.06,73316.8,-7.21,-38.49,-38.67,0,*59
1485799325.17,47984,12.06,73316.3,-7.21,-38.49,-38.55,0,*5F
1485799326.43,47985,12.13,73316.0,-7.21,-38.49,-38.55,0,*5E
1485799327.67,47986,12.13,73316.5,-7.17,-38.43,-38.61,0,*55
1485799328.93,47987,12.13,73316.0,-7.17,-38.49,-38.85,0,*54
1485799330.17,47988,12.06,73318.5,-7.17,-38.61,-38.73,0,*58
1485799331.39,47989,12.13,73316.3,-7.23,-38.67,-38.73,0,*58
1485799332.65,47990,12.06,73318.3,-7.21,-38.49,-38.73,0,*5E
1485799333.9,47991,12.13,73318.3,-7.21,-38.49,-38.73,0,*5F
1485799335.1,47992,12.06,73316.3,-7.23,-38.55,-38.73,0,*53
1485799336.36,47993,12.06,73318.0,-7.21,-38.55,-38.67,0,*55
1485799337.57,47994,12.06,73318.0,-7.23,-38.55,-38.55,0,*51
1485799338.86,47995,12.06,73316.3,-7.21,-38.49,-38.67,0,*5E
1485799340.11,47996,12.06,73314.8,-7.21,-38.35,-38.67,0,*56
1485799341.4,47997,12.06,73316.3,-7.21,-38.49,-38.67,0,*5C
1485799342.63,47998,12.06,73314.8,-7.23,-38.49,-38.73,0,*54
1485799343.89,47999,12.06,73316.0,-7.23,-38.49,-38.67,0,*50
1485799345.1,48000,12.06,73318.0,-7.23,-38.55,-38.73,0,*5E
1485799346.37,48001,12.06,73316.3,-7.21,-38.67,-38.79,0,*56
1485799347.65,48002,12.06,73316.3,-7.21,-38.67,-38.79,0,*55
1485799348.85,48003,12.13,73318.5,-7.23,-38.55,-38.73,0,*5D
1485799350.1,48004,12.06,73318.8,-7.23,-38.49,-38.55,0,*53
1485799351.33,48005,12.06,73316.3,-7.23,-38.35,-38.67,0,*58
1485799352.54,48006,12.06,73320.3,-7.25,-38.55,-38.61,0,*5D
1485799353.78,48007,12.06,73318.5,-7.23,-38.29,-38.55,0,*56
1485799355.01,48008,12.13,73318.8,-7.23,-38.35,-38.67,0,*55
1485799356.24,48009,12.06,73318.8,-7.23,-38.17,-38.49,0,*58
1485799357.45,48010,12.06,73318.8,-7.23,-38.17,-38.35,0,*5B
1485799358.66,48011,12.06,73316.8,-7.23,-38.17,-38.35,0,*5A
1485799359.9,48012,12.06,73318.8,-7.21,-38.35,-38.35,0,*5B
1485799361.16,48013,12.06,73316.0,-7.23,-38.49,-38.67,0,*54
1485799362.41,48014,12.06,73318.3,-7.21,-38.35,-38.67,0,*5A
1485799363.64,48015,12.06,73318.5,-7.23,-38.55,-38.79,0,*50
1485799364.88,48016,12.06,73316.5,-7.25,-38.61,-38.79,0,*52
1485799366.08,48017,12.06,73318.8,-7.25,-38.55,-38.73,0,*5E
1485799367.29,48018,12.06,73314.5,-7.25,-38.55,-38.73,0,*51
1485799368.49,48019,12.13,73318.8,-7.25,-38.55,-38.73,0,*50
1485799369.7,48020,12.06,73316.8,-7.25,-38.55,-38.73,0,*5A
1485799370.91,48021,12.06,73318.0,-7.25,-38.61,-38.85,0,*55
1485799372.14,48022,12.06,73318.0,-7.25,-38.79,-38.97,0,*5C
1485799373.37,48023,12.06,73316.3,-7.25,-38.73,-39.03,0,*5B
1485799374.61,48024,12.06,73318.5,-7.25,-38.55,-38.79,0,*54
1485799375.82,48025,12.06,73316.8,-7.25,-38.61,-38.85,0,*51
1485799377.02,48026,12.06,73318.5,-7.25,-38.55,-38.73,0,*5C
1485799378.26,48027,12.06,73316.5,-7.27,-38.43,-38.61,0,*5B
1485799379.49,48028,12.06,73320.3,-7.25,-38.23,-38.43,0,*50
1485799380.75,48029,12.06,73316.3,-7.27,-38.17,-38.23,0,*52
1485799381.99,48030,12.06,73314.5,-7.25,-38.05,-38.23,0,*5B
1485799383.28,48031,12.06,73318.3,-7.27,-38.23,-38.23,0,*5C
1485799384.51,48032,12.06,73318.8,-7.27,-38.43,-38.55,0,*58
1485799385.72,48033,12.06,73318.8,-7.25,-38.43,-38.61,0,*5C
1485799386.96,48034,12.06,73318.8,-7.27,-38.43,-38.61,0,*59
1485799388.17,48035,12.06,73318.3,-7.25,-38.35,-38.43,0,*5B
1485799389.43,48036,12.06,73316.5,-7.27,-38.23,-38.55,0,*5A
1485799390.64,48037,12.06,73318.3,-7.25,-38.35,-38.43,0,*59
1485799391.87,48038,12.06,73320.0,-7.25,-38.23,-38.43,0,*51
1485799393.08,48039,12.06,73318.3,-7.25,-38.35,-38.55,0,*50
1485799394.31,48040,12.06,73316.8,-7.27,-38.43,-38.61,0,*5A
1485799395.55,48041,12.06,73318.0,-7.27,-38.43,-38.61,0,*5B
1485799396.76,48042,12.13,73322.0,-7.25,-38.43,-38.61,0,*5A
1485799397.99,48043,12.06,73316.3,-7.27,-38.43,-38.61,0,*59
1485799399.22,48044,12.06,73318.3,-7.27,-38.61,-38.73,0,*5D
1485799400.45,48045,12.06,73320.8,-7.27,-38.55,-38.73,0,*5B
1485799401.7,48046,12.06,73314.0,-7.27,-38.73,-39.03,0,*5A
1485799402.98,48047,12.06,73318.5,-7.27,-38.79,-39.03,0,*51
1485799404.24,48048,12.06,73318.0,-7.27,-38.85,-39.23,0,*5F
1485799405.5,48049,12.06,73318.3,-7.27,-38.85,-39.03,0,*5C
1485799406.76,48050,12.06,73318.0,-7.27,-38.79,-38.97,0,*5B
1485799407.99,48051,12.06,73314.5,-7.29,-38.85,-39.03,0,*5B
1485799409.2,48052,12.06,73318.0,-7.29,-38.61,-38.85,0,*5D
1485799410.42,48053,12.06,73318.5,-7.29,-38.67,-38.85,0,*5A
1485799411.63,48054,12.06,73312.5,-7.29,-38.61,-38.85,0,*5B
1485799412.86,48055,12.06,73322.8,-7.29,-38.49,-38.61,0,*5A
1485799414.09,48056,12.06,73318.0,-7.31,-38.55,-38.73,0,*5E
1485799415.32,48057,12.06,73316.3,-7.31,-38.17,-38.35,0,*5B
1485799416.61,48058,12.06,73318.5,-7.31,-37.99,-38.29,0,*50
1485799417.87,48059,12.06,73316.8,-7.29,-38.29,-38.49,0,*5A
1485799419.1,48060,12.06,73316.8,-7.29,-38.43,-38.49,0,*5C
1485799420.33,48061,12.06,73320.3,-7.29,-38.05,-38.29,0,*59
1485799421.57,48062,12.06,73316.3,-7.29,-38.29,-38.43,0,*58
1485799422.82,48063,12.06,73318.3,-7.29,-38.23,-38.49,0,*59
1485799424.05,48064,12.06,73318.8,-7.29,-38.43,-38.49,0,*58
1485799425.3,48065,12.06,73322.0,-7.29,-38.11,-38.29,0,*58
1485799426.54,48066,12.06,73318.0,-7.29,-37.87,-38.11,0,*50
1485799427.79,48067,12.06,73316.0,-7.29,-38.11,-38.29,0,*5A
1485799429.03,48068,12.06,73316.0,-7.27,-38.43,-38.55,0,*57
1485799430.29,48069,12.06,73312.5,-7.29,-38.49,-38.49,0,*5F
1485799431.52,48070,12.06,73316.0,-7.29,-38.43,-38.49,0,*5D
1485799432.78,48071,12.06,73322.0,-7.31,-38.11,-38.35,0,*59
1485799434.0,48072,12.06,73316.8,-7.29,-38.11,-38.43,0,*52
1485799435.26,48073,12.06,73318.0,-7.31,-38.35,-38.49,0,*56
1485799436.46,48074,12.06,73318.0,-7.29,-38.43,-38.61,0,*53
1485799437.72,48075,12.06,73316.0,-7.29,-38.49,-38.67,0,*5E
1485799438.97,48076,12.06,73312.8,-7.29,-38.67,-38.79,0,*5E
1485799440.2,48077,12.06,73314.0,-7.29,-38.67,-38.85,0,*5C
1485799441.45,48078,12.06,73316.3,-7.29,-38.67,-38.91,0,*56
1485799442.68,48079,12.06,73312.5,-7.29,-38.79,-38.85,0,*5D
1485799443.89,48080,12.06,73312.5,-7.29,-38.85,-38.97,0,*5B
1485799445.14,48081,12.06,73314.3,-7.31,-38.73,-38.91,0,*5C
1485799446.4,48082,12.06,73318.5,-7.31,-38.73,-38.91,0,*5F
1485799447.65,48083,12.06,73314.8,-7.31,-38.35,-38.67,0,*55
1485799448.91,48084,12.06,73314.5,-7.31,-38.49,-38.73,0,*5C
1485799450.14,48085,12.06,73316.8,-7.31,-38.35,-38.55,0,*52
1485799451.41,48086,12.06,73314.8,-7.33,-38.29,-38.49,0,*53
1485799452.67,48087,12.06,73318.5,-7.31,-38.29,-38.35,0,*5B
1485799453.9,48088,12.06,73318.0,-7.31,-38.35,-38.55,0,*5F
1485799455.16,48089,12.06,73316.5,-7.31,-38.35,-38.67,0,*5F
1485799456.44,48090,12.06,73316.0,-7.31,-38.67,-38.91,0,*59
1485799457.66,48091,12.06,73314.3,-7.31,-38.73,-38.97,0,*5B
1485799458.88,48092,12.06,73316.3,-7.33,-38.85,-39.09,0,*55
1485799460.14,48093,12.06,73316.5,-7.33,-38.91,-39.15,0,*5C
1485799461.38,48094,12.06,73316.3,-7.33,-38.91,-39.09,0,*56
1485799462.66,48095,12.06,73316.8,-7.35,-38.91,-39.15,0,*5C
1485799463.9,48096,12.06,73318.3,-7.33,-38.85,-39.15,0,*5C
1485799465.16,48097,12.06,73318.5,-7.33,-38.91,-39.15,0,*58
1485799466.42,48098,12.06,73316.8,-7.33,-38.91,-39.15,0,*57
1485799467.65,48099,12.06,73318.5,-7.33,-38.91,-39.35,0,*54
1485799468.9,48100,12.06,73318.5,-7.35,-38.97,-39.23,0,*52
1485799470.13,48101,12.06,73316.8,-7.33,-38.97,-39.29,0,*5F
1485799471.41,48102,12.06,73316.0,-7.35,-39.15,-39.41,0,*5F
1485799472.7,48103,12.06,73318.0,-7.35,-39.15,-39.41,0,*5E
1485799473.98,48104,12.06,73318.8,-7.35,-38.91,-39.41,0,*54
1485799475.21,48105,12.06,73316.0,-7.39,-38.97,-39.35,0,*5C
1485799476.46,48106,12.06,73312.5,-7.39,-38.97,-39.23,0,*58
1485799477.69,48107,12.06,73318.0,-7.37,-38.97,-39.23,0,*57
1485799478.91,48108,12.06,73316.8,-7.39,-38.97,-39.35,0,*51
1485799480.13,48109,12.06,73316.3,-7.39,-38.97,-39.35,0,*50
1485799481.39,48110,12.06,73318.5,-7.39,-38.97,-39.23,0,*5F
1485799482.67,48111,12.06,73316.5,-7.39,-38.91,-39.15,0,*5D
1485799483.96,48112,12.06,73318.8,-7.39,-38.79,-39.15,0,*58
1485799485.25,48113,12.06,73316.3,-7.39,-38.91,-39.15,0,*5F
1485799486.5,48114,12.06,73318.5,-7.43,-38.97,-39.23,0,*56
1485799487.74,48115,12.06,73318.5,-7.45,-38.91,-39.09,0,*5F
1485799489.0,48116,12.06,73316.8,-7.43,-38.85,-39.03,0,*55
1485799490.26,48117,12.06,73318.3,-7.43,-38.85,-39.03,0,*54
1485799491.52,48118,12.06,73318.0,-7.45,-38.91,-39.15,0,*5F
1485799492.78,48119,12.06,73318.0,-7.43,-38.85,-39.29,0,*52
1485799494.04,48120,12.06,73316.5,-7.43,-38.97,-39.29,0,*5B
1485799495.3,48121,12.06,73320.3,-7.43,-38.85,-39.23,0,*53
1485799496.56,48122,12.06,73318.3,-7.45,-39.03,-39.15,0,*5C
1485799497.79,48123,12.06,73322.5,-7.43,-38.97,-39.09,0,*5A
1485799499.08,48124,12.06,73318.0,-7.43,-38.79,-39.03,0,*57
1485799500.34,48125,12.06,73316.8,-7.43,-38.85,-39.03,0,*55
1485799501.63,48126,12.06,73316.5,-7.43,-38.79,-39.03,0,*55
1485799502.86,48127,12.06,73318.8,-7.45,-38.85,-39.03,0,*51
1485799504.12,48128,12.06,73314.8,-7.43,-38.67,-38.85,0,*5B
1485799505.35,48129,12.06,73316.5,-7.45,-38.73,-39.03,0,*56
1485799506.6,48130,12.06,73316.3,-7.45,-38.67,-39.03,0,*5B
1485799507.81,48131,12.06,73318.0,-7.45,-38.73,-39.09,0,*55
1485799509.05,48132,12.06,73316.3,-7.45,-38.85,-39.03,0,*55
1485799510.26,48133,12.06,73316.3,-7.45,-38.85,-39.09,0,*5E
1485799511.48,48134,12.06,73312.5,-7.45,-38.85,-39.09,0,*59
1485799512.71,48135,12.06,73318.3,-7.45,-38.73,-39.03,0,*5B
1485799513.93,48136,12.06,73318.3,-7.45,-38.85,-39.09,0,*5B
1485799515.15,48137,12.06,73318.8,-7.45,-38.73,-39.03,0,*59
1485799516.36,48138,12.06,73322.3,-7.45,-38.73,-39.09,0,*5C
1485799517.62,48139,12.06,73318.0,-7.47,-38.67,-38.73,0,*56
1485799518.89,48140,12.06,73314.3,-7.47,-38.29,-38.55,0,*56
1485799520.16,48141,12.06,73318.3,-7.47,-38.29,-38.55,0,*57
1485799521.45,48142,12.06,73318.5,-7.47,-38.29,-38.49,0,*59
1485799522.69,48143,12.06,73318.0,-7.49,-38.61,-38.79,0,*59
1485799523.92,48144,12.06,73318.5,-7.47,-38.35,-38.73,0,*5B
1485799525.21,48145,12.06,73316.3,-7.47,-38.67,-38.91,0,*51
1485799526.44,48146,12.06,73316.3,-7.47,-38.55,-38.73,0,*5F
1485799527.68,48147,12.06,73318.0,-7.47,-38.55,-38.73,0,*5E
1485799528.92,48148,12.06,73312.3,-7.49,-38.61,-38.91,0,*54
1485799530.16,48149,12.06,73312.8,-7.47,-38.55,-38.85,0,*59
1485799531.42,48150,12.06,73318.5,-7.47,-38.49,-38.73,0,*55
1485799532.66,48151,12.06,73314.8,-7.47,-38.55,-38.85,0,*50
1485799533.87,48152,12.06,73316.5,-7.49,-38.35,-38.73,0,*52
1485799535.08,48153,12.06,73316.5,-7.49,-38.35,-38.61,0,*50
1485799536.35,48154,12.06,73318.3,-7.47,-38.17,-38.49,0,*53
1485799537.63,48155,12.06,73314.3,-7.47,-38.11,-38.49,0,*54
1485799538.9,48156,12.06,73318.3,-7.47,-37.99,-38.17,0,*53
1485799540.16,48157,12.06,73318.5,-7.47,-37.93,-38.17,0,*58
1485799541.43,48158,12.06,73316.8,-7.47,-38.11,-38.35,0,*52
1485799542.69,48159,12.06,73318.0,-7.47,-38.11,-38.35,0,*53
1485799543.95,48160,12.06,73322.3,-7.47,-38.11,-38.35,0,*59
1485799545.22,48161,12.06,73318.0,-7.45,-37.99,-38.29,0,*58
1485799546.49,48162,12.06,73320.8,-7.45,-37.99,-38.29,0,*5B
1485799547.75,48163,12.06,73318.3,-7.45,-37.99,-38.29,0,*5A
1485799549.02,48164,12.06,73316.5,-7.45,-37.99,-38.29,0,*5D
1485799550.28,48165,12.06,73318.3,-7.45,-37.93,-38.29,0,*56
1485799551.52,48166,12.06,73318.5,-7.45,-37.99,-38.35,0,*52
1485799552.78,48167,12.06,73316.8,-7.45,-37.93,-38.29,0,*54
1485799554.08,48168,12.0,73314.0,-7.43,-37.81,-38.23,0,*54
1485799555.38,48169,12.06,73318.5,-7.43,-37.81,-38.23,0,*55
1485799556.67,48170,12.06,73314.8,-7.43,-37.93,-38.23,0,*5E
1485799557.94,48171,12.06,73314.8,-7.43,-37.87,-38.23,0,*5A
1485799559.18,48172,12.06,73314.8,-7.39,-37.75,-38.17,0,*5E
1485799560.44,48173,12.06,73312.3,-7.45,-37.99,-38.29,0,*5B
1485799561.71,48174,12.06,73318.5,-7.43,-37.87,-38.11,0,*5E
1485799562.97,48175,12.06,73318.0,-7.39,-37.99,-38.17,0,*5B
1485799564.24,48176,12.06,73312.5,-7.39,-37.81,-38.17,0,*51
1485799565.53,48177,12.06,73312.8,-7.43,-37.81,-38.11,0,*5B
1485799566.79,48178,12.06,73314.3,-7.43,-38.05,-38.23,0,*56
1485799568.03,48179,12.06,73314.8,-7.39,-37.87,-38.17,0,*58
1485799569.33,48180,12.06,73318.8,-7.39,-37.99,-38.23,0,*56
1485799570.59,48181,12.06,73314.5,-7.39,-37.99,-38.35,0,*50
1485799571.88,48182,12.06,73314.8,-7.39,-37.99,-38.23,0,*54
1485799573.12,48183,12.06,73312.0,-7.39,-38.05,-38.55,0,*5E
1485799574.36,48184,12.06,73314.8,-7.39,-38.43,-38.61,0,*5C
1485799575.63,48185,12.06,73312.0,-7.39,-37.87,-38.23,0,*5C
1485799576.89,48186,12.06,73312.5,-7.39,-37.99,-38.35,0,*57
1485799578.13,48187,12.06,73314.0,-7.39,-38.17,-38.55,0,*59
1485799579.37,48188,12.06,73314.3,-7.39,-38.17,-38.35,0,*50
1485799580.64,48189,12.06,73312.0,-7.39,-38.05,-38.23,0,*55
1485799581.87,48190,12.06,73316.8,-7.39,-38.35,-38.55,0,*5F
1485799583.1,48191,12.06,73314.3,-7.39,-38.35,-38.73,0,*5A
1485799584.33,48192,12.06,73312.8,-7.39,-38.35,-38.61,0,*5A
1485799585.6,48193,12.06,73318.3,-7.39,-38.05,-38.23,0,*5E
1485799586.84,48194,12.06,73316.8,-7.39,-38.43,-38.61,0,*5D
1485799588.08,48195,12.0,73312.3,-7.39,-38.17,-38.43,0,*5D
1485799589.31,48196,12.06,73314.0,-7.39,-38.05,-38.43,0,*5D
1485799590.55,48197,12.06,73316.5,-7.39,-37.87,-38.17,0,*58
1485799591.82,48198,12.06,73312.8,-7.39,-37.81,-38.05,0,*52
1485799593.06,48199,12.06,73314.0,-7.37,-37.81,-38.17,0,*5E
1485799594.35,48200,12.06,73314.8,-7.39,-37.63,-37.99,0,*56
1485799595.62,48201,12.06,73314.3,-7.39,-37.87,-38.23,0,*53
1485799596.85,48202,12.06,73316.3,-7.39,-37.75,-38.05,0,*59
1485799598.06,48203,12.06,73320.5,-7.37,-37.87,-38.17,0,*58
1485799599.29,48204,12.06,73314.3,-7.39,-37.75,-38.05,0,*5F
1485799600.53,48205,12.06,73316.3,-7.37,-37.63,-37.87,0,*52
1485799601.77,48206,12.06,73314.8,-7.37,-37.63,-37.87,0,*51
1485799603.04,48207,12.06,73312.5,-7.35,-37.81,-38.05,0,*5B
1485799604.25,48208,12.0,73312.3,-7.37,-37.75,-38.17,0,*5E
1485799605.45,48209,12.0,73308.0,-7.37,-37.75,-38.05,0,*5C
1485799606.71,48210,12.0,73312.0,-7.37,-37.99,-38.23,0,*52
1485799607.95,48211,12.0,73312.0,-7.37,-38.23,-38.43,0,*5B
1485799609.19,48212,12.06,73314.5,-7.37,-37.99,-38.43,0,*56
1485799610.43,48213,12.06,73310.8,-7.37,-37.81,-38.17,0,*5F
1485799611.64,48214,12.06,73312.5,-7.37,-37.87,-38.17,0,*5E
1485799612.85,48215,12.06,73312.3,-7.37,-38.35,-38.61,0,*58
1485799614.05,48216,12.06,73314.8,-7.37,-38.43,-38.73,0,*59
1485799615.26,48217,12.06,73314.3,-7.37,-38.43,-38.73,0,*58
1485799616.46,48218,12.0,73310.3,-7.37,-38.35,-38.61,0,*55
1485799617.69,48219,12.06,73318.3,-7.39,-38.43,-38.73,0,*58
1485799618.9,48220,12.0,73312.5,-7.37,-38.43,-38.73,0,*5C
1485799620.13,48221,12.06,73314.5,-7.39,-38.43,-38.73,0,*53
1485799621.36,48222,12.06,73312.0,-7.37,-38.43,-38.79,0,*54
1485799622.59,48223,12.0,73312.3,-7.39,-38.43,-38.73,0,*51
1485799623.83,48224,12.0,73314.3,-7.37,-38.55,-38.79,0,*55
1485799625.06,48225,12.0,73316.0,-7.39,-38.35,-38.73,0,*56
1485799626.29,48226,12.0,73314.5,-7.37,-38.23,-38.55,0,*58
1485799627.58,48227,12.06,73312.0,-7.39,-37.99,-38.23,0,*58
1485799628.82,48228,12.0,73312.8,-7.37,-38.23,-38.61,0,*51
1485799630.03,48229,12.06,73314.3,-7.37,-38.35,-38.55,0,*50
1485799631.26,48230,12.0,73314.5,-7.37,-38.23,-38.43,0,*58
1485799632.53,48231,12.06,73314.3,-7.37,-37.99,-38.23,0,*51
1485799633.77,48232,12.0,73308.8,-7.37,-37.87,-38.23,0,*5D
1485799635.03,48233,12.0,73310.0,-7.37,-37.99,-38.23,0,*53
1485799636.3,48234,12.0,73310.0,-7.39,-38.17,-38.23,0,*53
1485799637.51,48235,12.0,73308.3,-7.37,-38.17,-38.35,0,*5B
1485799638.75,48236,12.0,73310.8,-7.37,-37.99,-38.35,0,*51
1485799639.96,48237,12.0,73314.5,-7.37,-38.43,-38.61,0,*59
1485799641.2,48238,12.06,73314.3,-7.39,-38.17,-38.43,0,*59
1485799642.46,48239,12.0,73308.5,-7.39,-38.23,-38.35,0,*5E
1485799643.72,48240,12.06,73314.5,-7.39,-38.23,-38.43,0,*51
1485799644.97,48241,12.0,73308.0,-7.37,-37.87,-38.23,0,*59
1485799646.24,48242,12.0,73308.3,-7.39,-37.87,-38.23,0,*54
1485799647.5,48243,12.06,73312.5,-7.37,-37.99,-38.23,0,*54
1485799648.71,48244,12.0,73314.0,-7.37,-38.05,-38.17,0,*5E
1485799649.95,48245,12.0,73312.8,-7.37,-38.05,-38.23,0,*58
1485799651.19,48246,12.0,73312.3,-7.37,-37.87,-38.23,0,*5E
1485799652.43,48247,12.06,73314.5,-7.37,-37.87,-38.23,0,*5F
1485799653.7,48248,12.0,73314.8,-7.39,-37.87,-38.23,0,*5E
1485799654.97,48249,12.06,73314.5,-7.37,-37.99,-38.23,0,*5E
1485799656.26,48250,12.0,73312.8,-7.35,-37.99,-38.23,0,*54
1485799657.5,48251,12.06,73312.8,-7.35,-38.05,-38.17,0,*58
1485799658.73,48252,12.06,73314.3,-7.35,-38.05,-38.35,0,*5B
1485799659.97,48253,12.0,73310.0,-7.35,-38.05,-38.35,0,*5A
1485799661.24,48254,12.06,73314.5,-7.37,-37.99,-38.23,0,*52
1485799662.47,48255,12.0,73312.3,-7.33,-38.11,-38.35,0,*5F
1485799663.71,48256,12.0,73312.3,-7.35,-38.17,-38.43,0,*5D
1485799664.98,48257,12.0,73312.3,-7.35,-38.23,-38.55,0,*5C
1485799666.21,48258,12.0,73314.3,-7.33,-38.23,-38.35,0,*53
1485799667.45,48259,12.06,73318.5,-7.35,-38.05,-38.35,0,*50
1485799668.72,48260,12.0,73314.0,-7.35,-38.05,-38.23,0,*5D
1485799669.99,48261,12.06,73312.5,-7.35,-37.87,-38.23,0,*59
1485799671.25,48262,12.06,73312.5,-7.35,-38.05,-38.23,0,*5F
1485799672.52,48263,12.06,73314.8,-7.35,-38.05,-38.23,0,*5E
1485799673.78,48264,12.06,73314.3,-7.35,-38.23,-38.43,0,*5B
1485799675.04,48265,12.0,73310.8,-7.35,-38.23,-38.43,0,*5A
1485799676.27,48266,12.06,73312.5,-7.33,-38.11,-38.17,0,*5F
1485799677.49,48267,12.06,73314.3,-7.33,-38.17,-38.35,0,*58
1485799678.73,48268,12.0,73312.3,-7.33,-38.17,-38.23,0,*50
1485799679.94,48269,12.06,73314.8,-7.33,-38.17,-38.35,0,*56
1485799681.15,48270,12.0,73314.0,-7.33,-38.17,-38.35,0,*5E
1485799682.41,48271,12.06,73312.8,-7.35,-38.23,-38.43,0,*5F
1485799683.65,48272,12.0,73312.0,-7.35,-38.43,-38.61,0,*5A
1485799684.89,48273,12.0,73312.0,-7.35,-38.43,-38.61,0,*5B
1485799686.12,48274,12.0,73310.0,-7.33,-38.35,-38.67,0,*5D
1485799687.33,48275,12.06,73312.0,-7.33,-38.35,-38.55,0,*5D
1485799688.57,48276,12.06,73314.3,-7.35,-38.35,-38.55,0,*58
1485799689.8,48277,12.06,73314.5,-7.35,-38.35,-38.61,0,*5E
1485799691.04,48278,12.0,73310.3,-7.35,-38.43,-38.61,0,*50
1485799692.28,48279,12.06,73314.8,-7.35,-38.35,-38.61,0,*50
1485799693.51,48280,12.0,73310.0,-7.35,-38.55,-38.73,0,*53
1485799694.74,48281,12.0,73310.3,-7.33,-38.35,-38.67,0,*57
1485799695.98,48282,12.0,73310.3,-7.35,-38.43,-38.61,0,*55
1485799697.21,48283,12.0,73312.8,-7.35,-38.43,-38.61,0,*54
1485799698.45,48284,12.06,73314.3,-7.35,-38.43,-38.61,0,*53
1485799699.71,48285,12.0,73312.5,-7.35,-38.61,-38.91,0,*5D